Flag for U.S.A. Weather past 2 weeks in Buffalo, New York, U.S.A.

Now
58 °F

Passing clouds.


Feels Like: 58 °F
Forecast: 59 / 79 °F
Wind: 5 mph from Southeast

Location: Greater Buffalo International Airport

Current Time: Jul 11, 2014 at 6:45:08 AM

Latest Report: Jul 11, 2014 at 5:54 AM


Visibility: 10 mi

Pressure: 30.21 "Hg

Humidity: 81%

Dew point: 52 °F

Location of BuffaloLocation

Historic Weather in Buffalo — Graph

°F

Buffalo temperature yesterday

Maximum temperature yesterday: 74 °F (at 3:54 PM)
Minimum temperature yesterday: 56 °F (at 4:54 AM)
Average temperature yesterday: 65 °F

Past Weeks' High & Low Weather Summary

 TemperatureHumidityPressure
High88 °F (Jun 28, 3:54 PM)97% (Jun 26, 5:54 AM)30.22 "Hg (Jun 26, 5:54 AM)
Low56 °F (Jul 4, 3:54 AM)35% (Jul 4, 4:54 PM)29.49 "Hg (Jul 8, 3:54 PM)
Average72 °F69%29.95 "Hg
* Reported Jun 26 4:54 AM — Jul 11 4:54 AM, Buffalo, Weather by CustomWeather, © 2014

Note: Actual official high and low records may vary slightly from our data, if they occured in-between our weather recording intervals... More about our weather records

Advertising

Buffalo weather history for previous 24 hours

 ConditionsComfort  
Time TempWeatherWind HumidityBarometerVisibility
4:54 AM
Jul 11
58 °FPassing clouds.3 mph81%30.21 "Hg10 mi
3:54 AM58 °FPassing clouds.3 mph84%30.20 "Hg10 mi
2:54 AM59 °FPassing clouds.5 mph81%30.20 "Hg10 mi
1:54 AM60 °FPassing clouds.3 mph78%30.20 "Hg10 mi
12:54 AM61 °FClear.No wind72%30.19 "Hg10 mi
11:54 PM
Jul 10
62 °FPassing clouds.3 mph70%30.19 "Hg10 mi
10:54 PM64 °FPassing clouds.6 mph65%30.19 "Hg10 mi
9:54 PM65 °FPassing clouds.6 mph61%30.19 "Hg10 mi
8:54 PM67 °FPassing clouds.7 mph57%30.17 "Hg10 mi
7:54 PM71 °FPassing clouds.9 mph49%30.16 "Hg10 mi
6:54 PM73 °FPassing clouds.8 mph46%30.14 "Hg10 mi
5:54 PM74 °FPassing clouds.8 mph46%30.15 "Hg10 mi
4:54 PM74 °FScattered clouds.8 mph46%30.16 "Hg10 mi
3:54 PM74 °FPassing clouds.5 mph45%30.16 "Hg10 mi
2:54 PM73 °FPassing clouds.5 mph46%30.17 "Hg10 mi
1:54 PM72 °FPassing clouds.3 mph48%30.18 "Hg10 mi
12:54 PM71 °FScattered clouds.9 mph47%30.17 "Hg10 mi
11:54 AM70 °FScattered clouds.7 mph47%30.18 "Hg10 mi
10:54 AM67 °FScattered clouds.3 mph47%30.18 "Hg10 mi
9:54 AM66 °FPassing clouds.7 mph49%30.18 "Hg10 mi
8:54 AM63 °FPassing clouds.6 mph60%30.17 "Hg10 mi
7:54 AM60 °FSunny.5 mph69%30.15 "Hg10 mi
6:54 AM57 °FSunny.3 mph83%30.12 "Hg10 mi
Weather by CustomWeather, © 2014

See weather overviewHow to use our weather pages